Location: Cuiry
(49.3858°N, 3.7708°E)
Time: 00:07:57
(UTC+00:00)

CZ-2D R/B - Pass Details

Date: 12 January 2026
Orbit: 389 x 399 km, 97.4° (Epoch: 9 February)

Event Time Altitude Azimuth Distance (km) Brightness Sun altitude
Rises 16:46:57 0° 144° (SE) 2,340 6.4 -6.1°
Reaches altitude 10° 16:49:03 10° 134° (SE) 1,483 5.3 -6.4°
Maximum altitude 16:51:54 32° 70° (ENE) 742 3.5 -6.8°
Drops below altitude 10° 16:54:47 10° 5° (N) 1,493 5.2 -7.2°
Sets 16:56:54 0° 356° (N) 2,358 6.3 -7.6°
